User: anonymous   Login
Location: Mercogliano
(40.9167°N, 14.7333°E)
Time: 19:14:19
(UTC+00:00)
Language:

Abrixas rocket - Orbit

View from above orbital plane
View from above orbital plane
View from above satellite
View from above satellite

Ground track
Ground track

The orbit data is extracted from the following two-line orbital elements,

1 25723U 99022C   20330.87024144 +.00054711 +00000-0 +25938-3 0  9997
2 25723 048.4092 193.3841 0001749 123.9533 236.1589 15.82314789203146
Epoch (UTC): 25 November 2020 20:53:08
Eccentricity: 0.0001749
inclination: 48.4092°
perigee height: 323 km
apogee height: 325 km
right ascension of ascending node: 193.3841°
argument of perigee: 123.9533°
revolutions per day: 15.82314789
mean anomaly at epoch: 236.1589°
orbit number at epoch: 20314

The dashed part of the orbit path shows where the satellite is in the earth's shadow,  

DLR